Theta_e
308 308 307 307 307 306 306 306 306 305 305 309 306 312 309 307 305 317 315 317 316 313 305 306 304 301 300 301 301 302 301 300 300 300 301 300 301 302 301 300 301 302 301 301 300 301 298 298 297 298 300 299 299 299 299 299 300 302 301 299 301 300 296 294 294 297 299 300 302 303 302 301 299 300 301 299 296 296 294 293 295 290 292 289 289 285 290
309 308 307 307 306 306 306 306 305 306 305 306 308 309 306 306 308 312 316 317 317 307 296 297 299 301 301 301 300 301 300 300 299 299 300 300 300 301 300 300 302 301 302 301 299 302 292 299 298 299 299 299 301 300 298 299 298 300 298 294 300 291 297 293 288 289 293 296 299 298 300 300 298 298 299 298 297 296 296 295 296 287 290 291 288 282 288
309 308 307 307 306 306 306 305 305 305 306 306 308 304 305 306 311 308 312 314 313 304 303 302 300 300 299 299 298 299 300 299 299 299 298 300 300 300 299 299 301 301 301 300 301 302 299 297 300 298 298 299 301 300 298 299 298 301 301 299 301 294 294 292 285 282 281 281 283 287 290 293 295 296 295 296 295 294 293 286 290 284 289 290 287 286 293
309 308 308 307 306 306 305 305 305 305 306 305 309 308 306 305 296 309 309 310 308 304 306 303 301 300 301 297 299 298 298 298 299 299 299 299 300 300 299 299 300 299 299 298 298 298 300 297 298 298 298 299 299 298 298 297 298 301 300 299 300 294 296 294 292 289 287 289 292 295 295 294 290 293 293 293 295 294 294 292 287 284 288 287 289 290 290
309 309 308 307 306 305 305 305 305 305 305 305 306 308 306 305 301 300 298 308 305 302 303 302 302 299 301 294 299 298 298 298 297 299 298 299 299 298 299 297 297 298 297 296 296 298 296 298 297 297 296 298 298 299 298 298 300 300 299 300 298 295 290 293 293 293 293 293 293 295 295 291 292 291 291 292 292 292 291 287 285 291 287 282 290 291 289
310 309 308 307 306 305 305 305 305 305 305 304 309 303 306 300 305 305 305 298 298 300 299 300 300 298 299 299 299 298 296 297 296 298 298 299 300 297 297 297 296 297 296 297 292 296 295 296 294 297 297 294 297 295 298 297 299 298 299 300 297 293 287 292 293 292 294 294 294 294 293 293 293 292 291 291 292 292 290 290 291 291 285 283 290 291 290
310 309 308 307 306 306 305 305 304 305 305 305 307 299 305 303 305 304 305 300 304 301 301 298 298 299 299 299 298 298 297 296 298 299 298 298 297 297 290 295 295 295 296 296 294 295 290 290 296 294 294 294 294 293 295 297 298 298 297 297 298 294 290 294 294 292 292 292 292 293 292 291 291 291 291 291 291 291 291 290 291 291 290 291 291 291 290
310 309 309 308 307 306 305 305 304 305 304 307 304 303 299 301 302 301 304 303 302 301 300 300 298 299 299 294 299 298 298 296 296 297 296 293 296 297 295 295 295 295 295 296 294 296 295 295 292 297 293 293 295 293 294 293 297 297 294 295 297 294 288 292 292 289 290 292 292 291 291 290 289 290 291 291 290 291 292 292 292 292 290 291 290 289 288
310 309 309 308 307 306 306 305 304 303 306 304 303 303 304 306 306 305 300 299 302 300 300 298 299 297 299 296 299 296 297 297 298 298 298 297 296 296 296 296 296 295 295 295 295 296 295 295 295 295 294 290 295 292 293 295 292 293 293 295 295 294 288 293 291 285 287 291 290 291 291 291 289 288 289 290 290 289 290 288 291 289 287 289 289 286 287
310 309 309 308 307 307 306 305 305 304 304 305 304 300 309 305 305 304 302 296 300 299 302 300 298 294 301 300 300 298 298 298 297 294 296 296 298 298 297 297 296 296 295 294 296 297 296 296 297 296 297 297 296 296 295 294 292 291 291 294 291 293 290 287 287 284 284 290 290 289 289 288 285 288 290 290 290 290 290 290 290 290 290 287 283 285 290
310 309 309 308 308 307 306 305 305 304 305 304 302 302 305 302 302 302 301 294 299 301 300 299 298 301 300 299 298 298 298 297 298 293 292 296 296 297 298 297 295 294 295 297 298 298 298 298 297 297 296 295 294 295 295 294 294 293 292 292 292 293 291 288 291 282 283 288 289 289 284 277 280 292 293 292 289 289 287 287 289 291 292 289 290 290 291
310 309 309 308 308 307 306 306 305 305 305 307 309 306 308 308 303 301 298 292 295 302 299 298 300 301 297 299 298 297 297 296 297 299 296 297 298 297 297 297 295 289 298 299 299 298 298 298 296 296 294 294 294 294 294 293 294 295 295 292 291 291 291 288 290 284 282 286 287 281 276 279 291 293 295 293 292 290 289 289 290 291 291 291 290 290 291
310 310 309 308 308 307 307 306 305 305 305 308 306 301 308 309 303 299 297 294 292 298 296 298 301 300 299 299 298 298 298 298 299 299 299 298 296 296 297 297 296 296 298 297 297 296 292 292 293 294 293 294 294 293 293 293 293 295 295 295 293 289 287 288 285 286 286 283 282 273 277 289 291 291 292 294 293 292 289 287 289 290 291 291 289 290 291
310 310 309 309 308 307 307 306 306 305 305 306 303 303 306 304 299 299 297 293 292 298 301 300 298 297 297 298 298 298 298 297 297 298 295 298 296 296 297 297 298 299 299 299 295 294 291 292 287 290 290 291 291 289 291 293 293 293 294 294 295 293 291 288 283 288 279 281 280 280 287 285 288 288 290 289 287 288 286 280 285 291 292 291 290 291 292
310 310 309 309 308 308 307 306 306 305 305 305 304 305 304 304 304 301 302 297 290 295 300 292 298 298 298 297 298 296 295 295 294 293 297 299 297 298 298 298 299 298 299 295 293 294 290 289 283 283 286 285 280 283 290 288 292 293 294 293 294 294 288 289 283 281 285 279 277 278 278 275 282 288 291 293 293 293 293 287 283 292 292 293 291 290 291
310 310 310 309 308 308 307 306 306 306 305 305 303 302 303 304 304 301 299 295 293 287 294 300 301 301 298 298 298 296 293 294 294 295 294 294 295 297 298 299 299 299 297 294 294 290 288 284 281 282 281 283 287 284 283 288 286 291 292 293 293 293 292 289 284 281 282 279 276 275 273 277 286 288 290 292 293 293 293 286 280 290 292 292 293 290 291
310 310 310 309 308 308 307 307 306 306 305 305 301 300 300 306 301 299 296 294 293 289 300 300 302 300 298 296 297 295 296 293 295 291 289 292 294 295 296 298 300 298 296 293 292 289 285 285 287 286 287 288 282 282 287 285 283 285 290 291 290 288 287 286 282 280 281 280 277 275 279 278 285 290 291 291 292 294 288 275 277 290 292 292 293 292 292
309 310 310 309 309 308 307 307 306 306 305 305 303 300 300 306 304 302 297 295 290 289 295 300 297 295 295 297 294 297 298 297 296 297 294 296 295 294 294 295 293 297 298 290 291 286 285 284 282 282 282 290 288 287 278 285 280 281 283 285 283 283 283 284 280 281 280 279 278 281 282 289 289 290 291 292 294 290 278 274 282 292 292 293 292 292 292
308 309 310 309 309 308 307 307 306 306 305 305 304 301 300 303 303 303 300 294 291 287 298 298 300 299 300 301 300 300 299 298 297 291 291 291 293 296 296 296 298 289 294 288 291 286 284 284 290 287 283 285 288 280 288 282 281 286 285 282 283 284 283 282 283 280 279 280 278 278 282 288 292 293 292 292 287 277 277 287 294 292 292 293 293 292 293
307 308 309 309 309 308 307 307 306 306 305 305 303 298 302 304 303 301 296 292 293 290 295 296 297 295 300 297 296 295 296 296 297 294 292 289 296 295 291 287 293 294 292 292 284 289 285 283 286 289 284 285 287 289 283 285 288 284 284 286 282 282 279 279 280 282 282 281 277 276 273 285 293 292 290 292 282 284 290 292 293 294 293 293 293 294 294
307 308 308 309 309 309 308 307 306 306 305 305 303 300 298 302 302 302 302 299 293 288 290 298 299 297 299 299 300 299 298 294 295 293 296 296 297 293 285 286 290 290 287 288 283 285 286 283 288 285 288 286 287 285 281 282 284 289 287 284 284 287 279 280 282 284 277 277 275 276 284 289 293 291 284 289 291 293 294 293 291 294 295 294 294 295 295
307 308 308 309 309 309 308 307 306 305 305 305 304 301 297 300 301 301 302 302 295 289 294 297 298 297 300 301 301 301 301 300 301 302 297 293 297 294 295 295 294 293 294 295 289 289 290 288 291 285 283 286 289 283 285 281 279 286 290 287 277 290 285 284 280 286 282 279 283 288 291 291 293 293 293 294 296 296 295 295 294 293 293 295 293 293 294
306 307 308 309 309 309 308 307 306 305 305 305 304 299 296 299 298 302 301 295 298 298 298 297 299 299 301 300 302 302 302 301 300 300 301 295 291 295 293 293 293 298 297 296 290 290 291 290 285 289 285 287 284 283 285 285 280 284 282 290 287 290 290 291 288 285 290 291 291 292 292 293 294 295 295 294 295 296 296 294 292 293 293 294 292 292 292
305 306 307 308 309 309 308 307 306 305 305 305 304 299 297 300 300 299 298 297 293 288 292 296 293 290 294 295 299 301 300 298 299 300 302 301 290 290 295 297 298 296 295 298 301 291 292 291 288 290 283 288 289 283 280 279 283 287 285 284 288 291 291 289 285 289 285 280 292 291 292 294 294 294 295 296 296 295 295 294 293 294 294 293 294 293 293
305 305 306 307 308 309 308 307 306 305 305 305 304 302 302 299 300 299 293 286 287 287 283 287 290 295 295 298 300 300 300 300 301 299 299 299 298 293 292 296 299 295 294 297 298 294 291 286 287 286 280 289 289 281 288 283 282 289 282 285 286 286 294 287 288 287 284 283 289 292 294 294 294 293 292 293 295 295 295 295 294 294 295 295 295 295 294
304 304 305 306 307 308 308 307 306 305 305 305 304 299 296 296 300 301 298 294 291 288 284 284 288 295 297 295 293 297 300 300 299 298 298 298 299 299 298 297 297 301 299 298 297 290 290 288 288 287 284 284 293 285 284 288 287 289 285 284 289 290 291 284 288 285 288 291 292 293 293 292 293 294 295 295 295 295 295 295 295 295 295 295 296 297 295
304 304 305 305 306 308 307 307 306 305 305 305 303 301 299 299 300 298 294 291 288 283 286 284 290 292 294 291 295 297 298 299 299 297 297 298 298 298 298 297 296 296 296 294 295 292 290 288 287 285 289 287 291 288 289 287 286 285 285 289 292 289 286 289 287 283 284 285 288 290 284 284 290 293 295 295 296 296 294 294 294 295 295 296 295 295 296
304 304 304 305 306 307 307 306 306 305 304 304 303 301 300 298 298 300 300 297 292 284 286 286 287 290 295 291 295 296 297 298 298 297 296 297 298 297 296 296 296 294 293 291 287 288 287 285 285 290 291 292 286 285 290 290 290 287 287 288 291 287 288 287 284 283 283 290 292 293 291 290 292 294 295 296 296 296 295 295 295 296 298 297 296 295 295
304 304 304 304 305 306 307 306 305 305 304 303 301 299 298 299 300 301 301 301 297 288 288 287 290 289 283 289 295 294 297 298 297 297 296 296 296 296 296 296 294 294 294 292 289 289 288 288 290 287 287 293 287 284 287 283 283 282 288 292 292 293 294 292 291 291 292 294 293 294 292 289 292 295 296 297 297 297 297 298 298 298 298 298 298 297 295
304 303 303 303 304 306 306 306 305 304 304 301 298 292 287 290 299 299 300 299 297 294 286 284 281 284 293 290 290 293 294 296 296 295 294 294 294 294 295 295 294 295 293 290 289 285 288 288 290 292 293 296 286 286 283 285 284 287 293 294 294 295 295 294 294 291 289 294 296 296 295 294 296 297 298 298 299 298 297 297 297 298 298 299 298 297 298
303 303 303 303 304 305 306 305 305 304 302 298 293 286 285 282 291 301 300 299 299 293 286 286 281 288 284 291 293 291 292 294 293 293 293 294 294 294 295 295 295 295 289 290 289 287 289 285 287 289 293 293 289 285 284 284 283 287 292 294 293 293 293 294 295 295 295 295 297 297 297 296 297 297 296 297 298 299 298 298 299 299 298 299 298 298 299
302 303 303 303 304 305 305 305 304 303 300 295 291 289 292 295 299 300 301 299 297 290 286 281 281 281 281 286 289 293 292 293 293 293 293 294 291 293 293 293 291 295 291 288 289 288 286 288 288 290 289 292 290 286 287 285 283 286 293 293 294 295 296 296 296 297 298 298 297 294 293 294 296 294 293 297 298 299 298 299 300 301 301 301 302 301 300
303 302 302 303 303 304 305 304 304 302 298 299 299 298 298 302 301 301 300 298 293 287 288 284 279 283 280 282 289 289 292 290 289 290 287 292 288 291 288 292 293 292 295 289 286 284 290 289 289 287 291 295 287 286 285 285 288 292 293 294 294 295 295 297 297 298 297 298 297 292 290 292 294 296 297 298 298 298 299 300 300 300 300 299 299 299 298
303 302 302 302 303 305 304 303 303 301 299 297 292 295 300 301 301 301 299 296 289 288 287 283 279 279 278 289 281 286 291 285 284 287 282 290 291 289 287 289 290 286 290 287 288 289 290 290 286 288 292 289 290 285 282 287 292 293 294 294 296 297 297 297 297 296 297 297 297 297 297 297 298 298 298 298 298 299 300 300 299 298 298 297 298 298 299
303 302 301 302 303 304 304 302 298 295 291 293 294 298 301 301 300 299 298 296 286 283 283 283 285 279 279 280 278 283 291 287 283 286 283 288 293 287 289 285 288 284 286 293 288 288 287 287 292 286 285 290 286 282 285 289 292 294 294 295 296 296 296 295 295 296 297 298 297 297 297 297 296 296 296 296 297 298 298 297 298 297 296 296 297 298 298
303 302 302 303 303 303 301 299 295 292 289 289 292 300 301 301 300 298 298 297 293 286 284 283 284 280 281 276 276 284 291 285 288 288 287 288 287 292 290 288 282 286 293 289 284 288 286 292 288 283 290 285 283 286 290 292 292 294 295 295 296 296 296 295 295 296 297 298 298 297 297 297 296 295 295 295 296 296 296 295 296 296 295 295 296 297 298
302 302 303 302 302 298 290 287 293 293 292 297 300 301 301 299 298 297 295 293 294 295 286 284 281 281 283 281 284 286 287 278 287 284 286 284 283 287 287 285 282 287 286 284 285 284 289 295 287 285 286 284 287 293 294 294 294 294 294 296 297 298 297 297 297 297 295 296 297 296 296 295 295 295 294 293 293 294 294 293 294 293 293 293 294 295 297
302 303 301 295 291 285 284 286 288 298 301 300 300 295 292 292 284 286 287 286 290 291 286 288 282 285 288 284 279 289 286 282 288 282 284 287 285 283 287 284 285 286 279 283 286 293 290 287 285 284 286 292 294 294 295 296 296 298 297 297 297 298 298 298 297 295 293 292 292 293 293 293 292 293 293 292 293 292 292 293 293 294 294 294 294 294 295
300 298 294 290 288 285 286 287 299 302 299 298 296 288 284 287 285 282 283 286 286 283 287 285 283 287 284 283 285 292 287 284 283 284 280 286 284 280 286 280 285 286 282 283 286 294 283 284 285 285 285 291 291 294 296 297 298 298 298 299 299 299 299 298 298 296 295 293 293 294 294 292 291 292 293 293 293 294 294 293 293 294 293 293 293 294 293
293 287 286 287 286 288 295 299 302 298 294 287 289 287 281 286 282 279 287 281 281 285 288 282 287 286 286 284 283 282 290 286 281 281 283 285 292 282 285 284 286 284 278 280 284 291 284 281 285 285 284 290 291 296 297 297 297 298 299 299 300 300 300 298 298 300 299 298 298 296 296 296 296 294 294 293 293 292 292 293 294 294 293 292 292 292 292
290 289 288 286 290 294 296 297 295 293 288 285 284 284 283 279 283 285 283 280 280 282 290 286 286 284 286 287 287 282 290 293 291 292 288 283 291 289 284 280 288 282 280 281 287 288 286 284 285 284 286 292 293 295 297 297 298 298 299 300 300 300 300 299 299 299 298 297 297 297 297 297 296 295 295 295 295 294 293 293 293 293 294 293 291 291 292
293 293 294 297 296 295 292 289 287 285 285 287 282 278 281 281 284 282 283 278 279 284 285 286 282 283 283 286 286 288 287 292 291 288 286 282 287 285 283 285 285 280 278 286 289 286 285 281 282 283 289 293 295 296 297 296 297 298 299 299 300 300 299 299 298 299 299 298 298 298 298 298 298 297 296 295 295 294 293 293 293 294 294 294 294 293 292
298 297 295 290 289 286 288 284 285 285 279 278 278 275 279 276 278 279 280 285 289 286 286 291 288 290 289 291 286 290 287 292 287 286 285 283 289 287 283 282 281 277 283 290 286 283 281 281 282 287 293 293 296 296 297 297 298 299 299 300 300 300 300 299 299 299 300 299 299 299 298 298 298 298 297 296 296 295 294 294 294 294 294 294 294 293 292
295 294 289 287 285 284 286 277 285 281 279 280 277 274 276 275 278 281 279 281 285 284 287 283 284 283 280 288 285 286 288 289 289 288 286 288 285 281 281 278 280 287 291 284 284 280 282 285 288 291 293 295 296 297 297 298 298 298 299 299 300 300 300 300 300 299 299 300 300 299 299 298 298 298 298 297 296 294 294 294 295 294 295 295 294 293 293
288 286 286 284 282 284 282 275 284 280 275 278 281 279 279 276 279 281 281 285 286 283 286 286 285 284 282 287 290 289 288 284 290 285 281 285 282 284 280 280 285 285 282 280 282 284 284 283 290 293 293 294 295 297 298 299 299 298 298 299 299 300 300 299 299 300 299 299 300 300 299 300 298 298 298 297 297 297 296 295 295 295 294 294 293 292 293
286 284 284 279 276 281 281 277 279 276 281 283 281 283 282 283 283 282 286 287 285 285 284 285 286 286 283 288 285 284 287 287 284 284 286 286 281 279 285 289 287 281 280 281 280 279 282 287 291 292 293 293 296 297 298 299 299 299 299 297 299 299 299 299 299 300 299 300 300 301 300 301 300 298 298 298 298 298 297 297 297 295 295 294 293 292 292
286 286 285 284 279 280 284 277 278 281 283 284 286 285 285 284 285 285 286 288 285 287 287 288 288 287 284 285 286 286 287 288 283 285 287 281 280 283 287 283 278 280 277 277 279 282 286 290 291 290 291 295 297 298 298 299 299 299 299 299 299 299 299 299 299 299 300 300 301 301 300 300 300 300 299 299 298 298 298 298 298 297 296 295 295 294 293
283 286 285 277 275 279 277 280 285 284 286 285 285 286 286 286 284 283 286 290 289 289 287 288 285 286 285 290 290 284 285 286 283 283 286 284 285 282 280 280 279 282 283 281 283 288 290 292 294 294 296 297 298 298 298 298 299 299 299 299 299 299 299 299 299 299 300 299 300 300 300 300 301 299 298 298 298 299 298 297 297 297 297 297 295 294 293
287 284 281 279 281 281 281 283 283 280 282 284 286 286 285 284 284 285 287 291 289 288 290 288 286 285 282 286 285 284 281 286 281 281 284 283 279 277 277 276 278 278 283 287 288 291 292 294 295 292 296 297 298 298 298 299 299 300 300 300 300 300 300 299 300 300 301 300 300 301 300 300 301 299 298 299 297 298 299 298 297 297 296 296 295 294 293
285 283 284 282 281 282 284 285 283 280 282 283 284 284 285 285 285 286 289 288 289 290 290 290 290 286 284 284 281 283 282 285 284 284 281 279 280 281 281 277 280 282 284 289 291 293 293 296 297 292 297 297 296 298 298 299 298 300 300 301 301 300 300 302 303 302 302 301 301 302 302 302 301 300 299 299 298 299 298 297 297 296 296 296 295 295 293
286 284 282 286 282 280 282 279 279 279 280 281 282 283 284 284 285 285 290 290 289 288 286 284 285 284 282 282 281 277 281 286 283 281 281 281 284 282 280 280 283 289 290 292 292 293 296 297 296 297 297 298 298 299 299 300 300 300 301 301 301 301 301 302 303 303 303 302 301 296 301 302 302 302 301 301 300 299 298 297 296 295 295 295 295 294 294
284 281 281 284 286 286 285 285 285 284 283 284 284 285 287 285 287 289 292 290 288 285 283 286 285 283 281 279 282 285 287 284 281 282 280 284 286 282 283 286 289 292 293 292 294 295 295 297 298 297 298 297 297 299 300 300 300 300 300 301 301 301 300 301 302 303 303 302 301 301 301 302 303 302 301 300 299 298 296 295 295 295 295 295 295 295 294
Wind_Speed
6 6 6 7 9 11 13 16 17 19 23 11 9 8 5 6 6 6 10 15 11 7 5 4 5 5 3 2 2 1 2 3 2 3 3 2 1 2 2 1 3 1 2 1 3 3 4 5 4 3 0 3 6 5 10 10 7 8 3 8 4 10 6 8 10 10 13 5 7 5 3 5 6 4 0 5 5 8 8 10 12 13 15 14 13 17 16
7 6 5 5 7 8 11 13 14 15 16 9 9 7 5 6 6 3 6 14 9 5 4 4 4 3 3 1 3 1 2 3 1 2 3 3 2 1 1 4 1 1 1 2 3 2 3 2 3 3 0 1 5 4 8 10 6 5 6 5 8 5 3 8 12 9 6 3 6 6 6 5 6 6 7 12 13 14 13 14 11 14 17 19 17 22 14
9 7 5 4 5 5 8 10 12 13 13 12 6 6 6 6 4 4 4 9 8 5 3 4 2 2 2 2 1 2 3 2 4 4 3 2 2 3 1 2 2 1 1 2 1 0 3 4 1 5 4 1 4 4 9 7 6 4 5 5 6 6 6 6 8 11 12 9 7 8 9 11 11 11 12 9 11 13 11 10 9 13 11 17 15 17 16
10 9 7 5 3 3 5 7 9 10 11 13 5 5 5 4 4 1 0 4 5 5 2 3 3 1 2 2 1 2 2 4 2 4 0 2 1 2 2 1 2 1 3 4 3 3 2 4 2 3 2 0 4 2 9 5 6 4 3 4 6 4 6 7 9 10 12 12 14 13 14 13 12 13 15 15 14 14 12 12 13 13 12 15 18 19 21
11 10 9 7 5 2 3 4 6 7 9 9 5 4 3 4 3 3 4 2 3 4 3 3 1 1 1 1 1 3 2 1 2 1 3 3 1 1 1 1 4 2 3 2 4 3 5 3 6 3 6 4 4 8 7 9 1 2 3 2 5 5 7 8 12 15 15 16 17 15 13 16 17 16 15 14 13 12 13 11 14 14 15 19 13 18 20
12 12 11 9 7 5 3 2 4 5 7 8 4 4 1 3 2 2 3 4 2 2 1 4 1 2 3 0 1 3 3 4 3 3 1 1 2 3 3 2 1 1 2 2 4 2 4 6 5 1 2 5 6 9 5 8 5 4 3 3 4 7 8 11 12 14 13 14 15 16 15 14 15 16 14 12 10 11 14 16 17 17 14 19 19 22 25
13 13 12 11 9 8 5 3 2 4 5 6 2 4 0 2 3 1 2 3 1 2 4 3 2 2 3 1 4 4 5 5 2 2 1 4 3 3 2 3 1 0 1 3 4 2 4 1 2 3 5 6 8 6 7 4 3 2 4 5 5 6 7 6 7 14 15 15 16 14 14 13 14 13 13 14 14 17 18 19 19 19 21 22 22 20 18
15 14 13 13 12 10 8 6 2 1 5 5 3 4 5 3 3 1 2 5 5 2 2 3 4 4 5 2 5 5 6 6 4 4 4 3 4 1 5 4 2 2 2 3 5 1 2 5 6 2 3 8 4 5 6 5 3 5 7 6 5 3 5 9 13 13 12 12 10 10 10 12 15 16 17 18 18 17 15 15 15 16 16 17 19 21 21
16 15 14 14 13 12 11 8 5 3 4 3 3 3 3 3 2 4 7 7 3 3 5 5 5 3 5 5 5 5 8 6 5 4 2 5 5 2 4 3 3 2 3 3 4 2 2 3 6 7 7 7 5 5 2 4 9 8 7 4 4 5 9 9 9 11 12 6 9 11 13 16 19 20 21 15 11 11 11 11 12 15 18 20 22 21 17
16 16 16 15 14 14 13 11 9 6 5 3 2 5 3 2 1 2 4 6 4 4 4 4 3 5 6 5 6 6 7 6 8 4 5 3 2 1 2 3 3 4 6 8 5 3 4 6 7 8 9 9 10 9 10 9 9 7 7 6 7 6 7 6 7 10 12 9 11 16 19 18 14 8 6 3 9 12 17 20 20 18 18 17 16 16 15
17 17 17 16 15 15 14 14 12 11 7 6 5 4 4 3 2 3 4 7 6 7 6 6 8 3 2 6 7 5 6 9 9 7 3 7 5 4 4 5 5 4 5 2 4 2 6 8 10 9 11 12 12 10 10 11 9 8 7 5 6 7 7 7 7 9 12 15 14 14 14 11 9 6 1 6 13 19 21 19 16 15 12 13 15 16 17
17 17 18 17 16 16 15 15 15 14 11 5 3 4 2 1 2 4 6 7 7 4 6 7 7 4 6 8 8 9 10 11 11 7 6 7 7 7 6 5 4 4 5 3 3 4 8 11 12 12 13 13 13 12 11 10 8 6 6 7 5 6 6 7 6 7 11 13 14 11 12 8 4 1 8 17 20 17 17 18 18 17 17 18 18 17 17
17 18 18 18 18 16 17 16 16 15 13 6 5 7 3 3 4 4 5 8 9 6 7 9 7 7 7 8 9 9 9 6 5 6 4 7 8 8 7 6 6 1 3 3 4 6 7 6 7 9 9 7 7 7 8 7 5 3 3 5 6 5 4 4 6 7 8 10 8 10 9 9 16 19 18 13 9 12 18 20 20 15 15 16 17 18 17
17 18 19 19 19 18 17 17 17 16 16 10 6 6 4 6 7 6 6 5 9 10 10 8 5 9 11 12 10 8 7 7 5 6 8 8 9 9 7 6 2 2 2 2 5 5 5 5 3 4 6 6 5 5 6 5 4 3 4 5 4 6 5 6 7 5 9 8 11 14 16 19 16 9 6 9 13 13 13 16 20 14 16 17 16 16 14
16 18 19 19 18 18 18 18 17 17 15 13 7 5 5 6 5 4 2 4 10 10 5 7 6 11 12 11 11 9 8 8 8 8 8 4 7 6 7 6 3 2 0 3 4 5 4 3 3 3 3 6 4 3 7 5 6 6 4 4 3 2 5 4 5 4 5 9 11 10 10 12 8 9 10 11 13 10 9 11 21 15 13 12 12 12 12
17 17 19 19 19 19 19 19 18 18 16 14 6 6 5 5 2 1 3 5 5 9 9 14 13 5 9 9 12 12 7 7 8 6 6 8 8 7 6 5 3 3 5 4 4 3 3 3 4 3 4 4 1 1 4 3 3 8 5 6 6 6 6 9 8 9 8 9 10 9 9 11 11 10 11 12 12 8 8 10 18 11 6 7 8 9 13
17 17 18 19 20 20 21 20 20 19 17 16 8 6 6 6 6 6 5 4 6 12 5 6 1 4 4 5 7 9 9 6 8 5 6 9 11 9 7 7 5 6 7 5 5 4 5 6 6 5 4 4 4 2 2 4 3 3 7 8 9 8 7 5 8 8 7 8 9 11 6 7 7 12 12 12 10 5 8 12 10 5 8 4 11 18 19
17 17 18 19 20 19 21 20 21 20 18 17 8 6 4 6 6 3 3 4 6 9 10 4 4 5 8 4 7 5 5 3 6 4 4 3 7 9 8 7 7 7 6 5 4 5 5 4 6 4 3 5 2 1 4 4 2 4 4 4 5 5 5 5 8 8 8 9 10 9 9 9 7 10 10 11 10 9 10 14 11 13 14 16 17 20 20
18 17 17 18 20 19 20 20 20 19 19 19 8 0 5 5 5 5 2 2 3 7 3 3 4 7 7 6 1 3 3 5 7 4 3 4 7 8 9 2 2 6 9 5 6 5 5 5 2 3 4 5 6 3 1 3 3 2 4 6 6 6 5 6 6 8 8 7 9 10 10 10 7 6 6 8 7 9 12 11 14 18 22 21 20 22 21
19 19 18 18 19 20 20 20 21 21 21 21 12 7 1 7 7 11 9 7 4 7 8 5 2 9 5 7 5 6 4 4 7 8 6 5 8 11 6 5 7 4 7 5 6 4 4 6 4 2 5 5 3 3 3 7 3 4 3 5 6 5 2 5 5 5 6 6 8 9 10 2 5 6 11 9 10 11 13 18 22 19 21 24 24 21 21
18 18 19 18 19 19 20 21 22 22 23 23 16 7 4 3 6 3 3 6 4 4 9 5 3 7 8 9 8 8 8 8 8 9 8 2 10 8 5 6 9 9 7 7 7 6 4 5 5 3 0 1 3 2 3 2 5 6 6 5 7 5 4 6 5 2 7 8 8 7 4 6 9 13 13 12 15 18 21 20 23 22 20 21 22 23 22
18 18 18 18 19 19 21 22 22 23 23 23 17 6 7 6 5 5 4 4 5 7 1 2 3 5 7 8 6 6 8 9 6 6 4 4 8 7 4 3 8 5 3 5 4 4 4 3 1 3 4 4 4 5 2 4 4 3 5 4 4 4 7 3 7 5 5 8 11 13 13 15 15 15 18 21 22 20 21 22 23 24 22 21 21 22 23
18 18 18 19 20 20 22 23 23 23 24 24 16 9 10 7 6 7 7 5 1 2 2 2 4 6 6 9 6 5 5 5 6 4 5 3 4 5 4 4 4 1 2 4 4 2 4 6 3 3 2 4 4 4 5 6 5 4 4 5 6 6 8 7 9 11 13 18 20 21 19 17 18 17 18 21 23 23 21 21 21 20 23 20 19 22 24
18 18 18 17 18 19 23 23 24 23 23 26 19 11 7 6 8 7 4 1 5 4 3 4 3 7 9 10 8 5 3 3 2 4 6 5 2 3 2 3 2 2 3 2 4 1 3 2 2 1 3 2 4 4 5 4 3 1 5 6 5 7 8 9 10 10 11 11 2 9 16 20 21 21 21 20 19 19 18 19 20 22 23 23 24 25 25
19 19 19 20 19 19 24 23 23 23 23 26 17 5 5 5 6 9 10 8 6 6 8 2 9 4 4 2 3 4 5 2 2 2 5 4 6 5 4 4 2 4 7 6 3 3 2 3 4 3 5 4 4 4 3 3 4 3 5 6 4 3 3 7 12 14 13 17 19 22 22 19 19 18 18 19 20 21 20 19 20 22 24 24 25 25 26
19 20 20 20 20 19 24 25 24 23 24 27 20 12 12 10 8 7 5 3 3 2 5 9 3 5 1 1 4 3 1 3 4 4 4 5 3 7 4 5 4 3 5 5 5 3 3 2 3 3 4 3 6 5 4 3 5 5 7 8 6 8 8 8 9 13 16 19 20 18 23 22 15 14 15 17 19 23 26 24 24 24 25 27 27 25 22
21 20 20 21 20 19 23 26 26 23 24 27 16 9 8 7 9 13 12 9 6 3 5 9 2 1 3 5 2 2 2 5 4 5 4 5 4 2 2 5 6 5 6 5 4 3 2 2 3 5 5 2 0 3 4 5 6 6 6 8 7 7 9 10 12 14 14 12 14 18 18 20 18 18 19 20 22 24 26 25 25 25 25 24 26 26 23
22 20 20 21 21 20 22 27 25 24 25 23 13 8 7 7 8 10 9 9 10 3 1 3 2 2 4 3 6 2 4 5 6 6 6 6 6 4 4 5 5 6 6 6 5 5 4 5 5 4 2 2 2 5 7 6 5 7 8 8 6 7 9 8 10 11 15 18 19 17 18 21 22 23 26 26 24 23 25 26 26 26 25 24 23 24 25
22 22 21 23 23 20 22 26 24 24 26 19 10 9 7 5 6 8 9 7 5 4 3 2 3 2 4 1 7 5 4 5 6 6 6 6 6 5 6 6 6 5 5 4 2 2 4 3 1 3 2 3 3 4 3 5 6 7 6 5 5 7 9 12 15 18 21 20 18 20 18 19 24 27 27 25 23 23 27 26 25 25 25 25 24 22 22
24 23 22 24 23 21 22 26 27 29 25 13 10 5 5 5 8 9 9 9 7 4 3 3 3 1 3 2 3 6 5 5 6 6 6 6 6 6 6 6 6 5 3 3 3 4 4 3 3 3 2 3 3 1 3 4 5 7 6 8 9 9 10 10 11 13 17 19 20 19 18 21 22 25 25 24 24 22 22 25 25 25 25 22 22 20 18
25 23 22 23 23 21 22 28 29 29 24 13 10 6 7 8 11 11 12 11 8 6 2 1 2 1 2 2 2 6 8 7 7 7 7 6 6 6 5 4 4 7 4 3 3 4 2 3 3 4 5 7 4 2 3 4 6 8 7 8 9 10 10 11 11 13 16 19 21 21 20 19 20 22 23 20 23 25 24 22 22 20 23 22 21 22 19
24 24 22 23 23 21 25 27 29 30 17 16 15 7 5 2 11 19 18 12 9 5 4 5 2 1 2 1 3 5 8 7 6 5 3 4 4 4 3 5 4 6 5 4 3 2 4 3 4 4 4 7 6 3 6 6 9 9 8 10 10 10 11 12 13 14 15 16 19 23 22 18 13 15 19 24 26 24 23 20 19 20 20 18 19 19 16
24 25 24 22 22 21 24 28 34 21 13 9 8 5 1 16 29 25 17 13 6 2 1 2 3 2 2 3 5 2 7 5 5 5 4 5 5 5 4 3 1 3 4 3 4 3 2 3 4 5 5 6 4 3 6 8 8 9 11 10 10 10 11 12 13 13 14 14 12 14 18 23 26 25 23 23 22 20 20 20 21 19 19 20 18 17 14
23 22 22 21 20 21 28 32 30 21 16 11 5 5 7 23 27 27 16 10 5 3 1 3 4 4 3 4 6 6 9 7 6 7 4 5 4 5 4 5 4 3 5 7 4 3 3 3 4 4 4 6 6 4 8 9 9 9 9 9 11 11 12 13 13 14 15 15 16 15 16 18 19 18 19 19 18 17 18 19 20 20 20 17 15 15 14
22 21 20 21 19 19 28 29 17 13 12 9 6 5 14 28 24 22 14 7 8 3 4 2 3 6 6 5 5 6 10 7 7 9 6 4 4 6 5 5 5 5 5 6 4 5 4 5 5 4 6 5 5 6 8 9 9 10 10 11 11 12 13 13 14 14 15 16 14 15 16 18 19 19 17 17 17 17 19 18 18 19 18 18 17 15 13
23 21 19 19 20 26 19 17 13 12 7 8 8 15 29 25 22 11 6 4 2 5 7 8 7 7 7 9 9 6 10 6 3 3 2 5 4 4 5 5 6 6 3 5 6 6 5 5 3 6 6 6 8 7 6 6 8 10 10 11 11 11 13 14 15 15 15 16 17 16 16 17 17 16 15 16 16 17 17 17 17 17 18 17 17 17 11
22 20 19 18 13 9 4 3 5 5 6 12 17 26 28 19 8 6 4 2 1 2 3 9 8 9 9 6 2 3 9 6 5 5 5 6 6 3 5 5 7 3 2 5 6 5 5 4 4 5 6 7 5 5 5 6 8 9 10 10 11 11 12 12 13 12 14 16 18 16 16 16 16 15 16 16 16 16 17 17 16 16 16 17 17 16 15
22 17 9 9 6 5 4 2 5 11 26 31 27 15 7 4 4 3 3 3 2 2 0 3 8 8 3 5 6 6 7 6 7 6 5 5 5 4 3 4 4 4 6 5 6 6 3 4 5 7 6 8 7 7 7 7 6 7 8 9 10 11 11 12 12 11 12 12 13 14 14 15 16 16 17 17 17 16 14 13 14 14 15 15 15 15 14
15 9 8 3 6 4 6 10 15 30 20 11 4 3 3 2 5 4 5 3 4 6 5 8 11 9 8 8 6 5 3 7 8 7 7 6 5 5 4 7 3 4 4 4 5 8 6 6 5 5 6 6 6 5 4 5 6 5 7 8 8 9 10 10 10 9 10 9 10 11 12 12 15 16 15 15 16 16 16 16 16 15 15 14 15 15 15
11 6 6 8 4 5 10 19 32 18 8 5 1 2 6 4 5 5 4 5 5 5 6 11 9 9 8 9 10 7 3 7 9 9 7 6 2 4 4 3 3 4 5 6 5 8 5 6 5 5 5 6 5 1 3 4 5 5 6 7 9 9 9 8 8 7 8 9 9 9 11 13 13 13 14 15 14 15 17 17 16 16 16 16 15 14 14
6 6 6 7 9 11 14 13 8 4 2 3 3 1 4 4 3 2 6 9 8 5 6 9 7 5 4 1 5 8 4 0 1 2 5 5 3 2 5 5 3 4 5 6 4 4 4 4 5 6 3 3 1 1 3 3 4 5 6 6 7 7 7 6 6 7 8 8 9 10 11 12 12 13 13 15 15 14 13 15 15 17 18 17 17 16 13
4 5 7 9 10 10 8 5 1 3 2 1 3 4 3 4 4 4 4 11 11 6 9 10 11 11 10 7 5 4 3 1 0 1 5 4 3 4 5 3 2 4 4 3 6 4 4 6 6 6 5 3 1 1 2 3 4 5 6 5 5 5 5 4 5 6 7 7 8 8 9 11 12 11 12 12 13 13 13 14 16 17 17 16 15 15 15
28 20 13 9 4 3 1 4 0 1 5 3 3 4 3 4 6 7 7 5 4 8 9 6 5 7 6 5 3 2 3 3 2 2 3 5 3 2 4 4 3 5 4 5 5 5 8 6 6 5 6 3 1 1 2 3 3 4 4 4 5 4 3 3 4 5 6 6 7 8 9 10 10 11 11 12 13 13 12 12 13 14 14 14 14 15 15
13 9 6 2 4 1 2 7 3 3 3 3 7 9 10 8 10 10 7 9 10 10 11 12 10 12 10 3 4 5 4 3 2 2 2 3 2 3 4 5 6 2 4 4 5 8 7 4 5 5 4 3 1 0 1 1 2 3 2 3 3 2 2 2 3 5 6 5 6 6 7 8 9 10 11 12 13 14 13 12 12 13 13 14 13 12 13
8 4 3 3 3 2 3 4 1 3 6 8 7 8 10 12 13 12 9 7 9 12 11 8 10 10 10 6 3 2 3 4 2 3 4 5 5 5 3 4 4 3 4 6 5 5 4 5 6 5 5 3 1 1 0 1 2 3 3 3 2 3 3 4 5 5 5 6 6 7 7 7 8 9 10 11 12 11 11 11 12 13 13 12 12 13 12
5 8 6 6 6 1 1 5 5 5 4 6 6 6 9 9 11 9 5 6 8 11 11 11 11 10 10 4 4 5 3 3 5 3 4 4 5 5 3 2 2 5 5 5 7 9 8 7 8 7 4 0 1 0 0 1 1 2 2 3 3 3 4 3 4 5 5 6 6 6 7 7 8 9 10 11 12 12 11 9 9 10 10 10 11 12 12
4 1 1 3 5 3 1 4 5 3 5 8 7 7 8 8 7 7 4 5 10 8 9 8 9 9 10 7 4 3 3 3 5 4 3 4 5 3 1 4 6 6 6 7 7 6 7 9 6 3 2 2 1 1 1 1 1 2 2 2 2 2 2 2 2 3 5 5 6 7 7 7 8 9 10 11 11 11 10 9 10 10 10 9 10 9 9
6 1 0 3 5 4 5 4 5 7 6 7 7 7 7 8 10 8 4 4 9 10 12 11 12 10 6 2 3 6 7 4 5 5 3 2 2 3 4 4 5 5 4 5 6 6 7 7 6 5 3 1 0 1 1 1 1 2 2 2 2 2 1 1 2 3 4 5 6 6 7 7 7 8 9 10 10 10 10 10 10 10 10 10 10 10 10
2 1 3 5 3 3 5 6 7 8 6 7 8 8 8 9 8 8 6 6 11 12 12 11 10 8 7 5 5 7 7 6 4 5 4 4 4 5 5 5 7 7 5 6 4 7 7 7 6 3 2 2 1 1 1 1 1 2 2 2 3 2 1 0 1 2 3 4 5 6 7 7 7 7 9 9 9 9 9 10 10 9 10 10 10 10 11
3 3 2 4 7 6 7 8 9 10 7 7 7 7 7 8 8 8 7 10 11 11 9 8 6 3 5 5 4 4 5 5 4 4 6 7 5 4 5 5 6 4 6 7 6 7 6 6 5 3 3 2 1 1 1 1 1 2 2 2 2 2 1 1 2 3 4 4 5 7 7 6 6 7 8 9 8 7 7 9 9 9 9 9 10 10 10
2 3 2 3 4 8 8 9 10 11 10 8 9 9 9 10 10 10 9 10 13 12 9 9 6 4 6 4 5 5 4 4 4 7 6 6 4 4 6 4 5 5 5 6 4 4 5 4 3 3 4 2 1 1 1 2 2 1 1 1 1 2 2 1 2 3 3 3 3 4 5 6 5 5 5 6 6 6 7 8 9 8 8 8 9 10 10
2 4 5 5 6 6 4 6 6 6 6 7 8 7 8 9 9 8 9 12 13 13 12 9 7 6 4 5 5 3 4 3 3 5 7 6 4 5 4 4 6 7 7 6 7 5 4 3 3 2 1 1 1 2 2 2 1 1 1 1 1 2 2 2 2 2 3 3 3 4 4 5 5 4 3 4 5 6 6 6 7 7 7 7 7 8 8
Wind_Direction
251 279 301 319 329 341 344 346 351 356 350 355 353 315 311 349 314 352 354 338 332 302 86 88 50 53 63 169 171 201 209 306 337 285 4 260 236 253 241 36 257 124 313 309 292 346 291 310 307 6 130 95 79 62 15 355 333 321 7 321 81 316 259 291 288 293 280 254 271 219 208 216 216 200 206 312 334 336 305 286 292 284 280 273 273 260 272
233 246 276 301 321 338 343 345 352 358 10 349 316 306 340 310 302 293 13 336 318 4 35 14 28 62 99 217 96 27 354 332 297 312 43 343 335 308 266 174 4 8 301 272 283 19 290 148 267 180 151 109 88 51 7 3 343 351 30 335 5 321 6 338 310 308 310 211 174 184 178 256 280 311 319 323 314 305 297 294 283 271 263 268 269 269 275
222 230 241 273 307 329 341 345 347 357 360 353 323 335 323 289 240 243 331 11 11 59 17 12 356 52 23 293 196 174 185 45 348 328 357 336 341 268 202 354 341 224 325 268 246 228 291 293 96 312 290 31 110 114 352 1 337 7 45 345 317 281 296 316 309 314 313 312 312 332 333 319 329 311 300 301 305 303 307 283 285 273 280 276 266 273 281
215 218 222 228 252 302 333 340 345 352 360 348 312 307 292 356 315 8 184 39 67 97 76 42 356 15 1 271 152 254 201 148 144 284 293 4 357 343 333 176 260 263 227 218 220 237 216 266 325 307 290 270 126 32 330 344 323 358 30 325 313 287 289 272 273 282 284 295 305 311 308 295 290 300 299 296 296 293 282 283 273 268 282 271 269 281 291
212 211 212 213 209 234 297 331 339 351 354 2 322 279 268 307 263 350 333 337 102 92 81 56 348 8 332 288 104 217 233 325 190 124 249 86 342 59 14 308 235 197 253 261 265 256 266 221 273 275 295 322 311 331 320 313 36 100 247 309 312 291 289 278 279 271 274 287 290 297 296 288 290 293 294 298 292 286 280 267 269 293 296 271 271 282 284
208 208 206 203 204 208 224 295 333 346 353 338 287 303 275 279 78 330 40 309 339 340 83 24 44 119 243 255 160 250 235 226 219 163 249 280 253 266 185 195 352 5 338 320 282 221 262 267 276 30 252 313 324 316 321 311 97 214 241 348 341 316 290 284 275 274 282 290 292 290 285 278 284 289 291 290 294 283 272 270 276 279 266 278 294 295 294
211 207 203 200 198 197 205 226 282 340 343 323 305 301 73 255 320 292 348 262 331 332 14 330 275 238 232 230 213 216 226 236 203 312 199 210 204 250 242 203 128 62 175 271 275 252 285 215 101 291 321 318 316 300 323 141 146 255 318 330 332 302 272 311 308 297 291 289 285 286 287 289 287 286 292 291 282 277 277 279 280 276 278 286 294 299 299
224 212 204 200 196 193 194 205 212 119 322 274 259 250 299 311 313 314 182 261 277 227 227 222 229 233 176 243 202 220 214 224 183 195 231 243 204 196 243 197 148 167 232 227 261 281 318 320 295 37 310 299 274 304 278 292 325 330 316 326 311 283 290 340 312 300 293 289 292 289 288 295 293 289 286 280 276 277 281 283 284 292 293 295 294 294 293
224 220 206 202 198 194 192 196 199 172 268 221 231 248 207 331 359 336 299 276 217 192 215 219 237 249 190 228 182 217 212 212 197 188 214 247 256 218 220 141 193 196 221 235 233 170 238 247 263 284 278 271 307 313 286 329 300 306 306 295 319 296 286 300 297 296 291 298 293 294 294 297 295 287 277 277 285 289 298 295 302 298 294 297 294 289 288
223 220 216 210 200 196 190 186 194 169 230 251 237 248 117 218 148 246 268 270 166 236 176 227 230 246 218 220 184 199 206 181 170 192 186 185 180 159 170 184 253 217 216 242 203 163 234 254 263 270 269 269 271 269 276 285 291 295 288 287 282 285 291 294 300 292 285 303 309 308 310 299 286 284 67 4 292 294 298 298 298 293 301 296 290 293 312
224 220 216 212 203 199 193 188 187 181 201 213 214 229 169 220 251 209 228 265 248 228 236 229 225 307 111 193 194 202 196 183 192 209 175 177 173 167 185 195 229 267 258 87 82 269 265 268 269 267 263 262 265 264 263 268 266 268 273 277 262 265 269 279 288 282 293 306 309 309 298 292 308 75 305 317 301 303 301 304 309 304 297 287 296 297 302
226 220 217 214 209 198 196 191 188 189 212 244 259 254 200 166 244 252 257 251 264 200 226 242 231 194 211 201 205 205 200 197 205 216 224 186 168 170 189 202 213 253 80 45 302 278 272 262 256 255 255 258 259 257 256 259 267 242 228 238 264 266 271 276 278 274 288 304 303 295 279 282 33 297 282 299 310 313 306 301 291 288 290 284 285 292 298
231 223 217 214 209 198 198 196 192 189 203 219 208 227 165 184 220 224 249 262 266 240 227 248 235 231 222 206 210 215 216 203 179 182 216 176 176 190 202 209 219 87 52 303 290 280 273 275 251 239 244 228 231 231 231 215 202 184 215 223 234 259 268 288 278 271 286 290 293 284 270 335 308 295 297 303 293 298 307 298 288 288 292 295 292 292 295
236 228 220 214 208 198 198 198 196 194 196 203 215 222 180 172 197 212 223 252 262 260 256 271 213 219 212 210 208 200 177 189 189 197 209 205 209 201 185 199 211 16 308 308 268 256 266 220 254 216 199 186 179 191 153 150 176 172 169 178 214 253 273 264 283 291 278 283 282 278 300 296 288 293 326 329 321 321 315 305 296 302 291 286 283 287 295
242 232 224 217 206 193 197 199 197 195 191 192 229 225 198 199 219 214 218 249 265 279 249 244 258 216 205 205 199 189 198 198 191 215 213 188 213 207 186 172 152 228 174 257 246 221 250 292 255 231 230 195 217 174 165 203 169 184 194 204 201 250 272 310 299 275 298 293 291 292 297 292 306 355 346 336 320 311 312 302 290 289 278 278 285 291 290
244 237 228 219 207 194 197 197 196 193 187 181 210 231 229 199 172 44 227 229 252 268 259 234 257 215 194 203 199 203 205 199 205 193 189 207 208 164 179 176 172 184 208 228 254 263 235 225 245 243 248 220 130 30 245 144 255 168 198 217 220 248 269 274 269 277 278 275 276 276 277 272 296 327 327 320 317 333 322 299 284 297 310 310 292 277 285
246 240 231 222 212 196 196 194 193 190 186 178 197 208 234 172 171 188 199 229 233 238 27 27 318 200 188 181 194 225 223 216 194 198 217 209 198 185 160 166 153 186 196 218 218 216 213 219 238 252 257 147 194 230 251 248 203 223 197 222 242 256 259 271 273 271 268 273 270 273 269 278 303 308 319 331 322 337 317 289 280 339 329 269 272 292 303
249 242 235 226 217 199 191 192 191 187 183 182 185 203 219 157 167 146 210 216 233 262 263 150 177 214 229 229 205 197 187 205 202 226 260 147 160 183 169 167 173 175 195 217 207 219 236 239 237 240 240 113 108 244 248 97 204 233 248 280 284 280 279 262 260 267 268 267 270 279 272 267 288 304 298 295 320 307 272 265 288 324 316 311 305 297 295
259 250 240 230 222 206 190 189 187 183 181 182 174 167 242 169 152 141 122 141 203 240 82 96 318 286 333 5 311 186 214 230 198 183 179 180 208 171 161 121 248 169 186 204 217 224 229 229 207 236 230 181 168 223 165 203 242 306 267 256 259 265 259 248 243 251 261 277 279 273 283 294 301 276 300 313 296 262 263 295 320 313 305 302 299 295 292
256 252 245 236 226 212 190 188 185 183 183 183 171 198 150 154 181 175 178 185 197 265 273 275 226 258 266 258 229 203 184 219 213 227 205 202 114 138 155 185 204 188 180 186 208 218 218 231 188 172 231 213 202 89 268 236 213 253 272 277 266 265 257 255 244 269 274 256 267 282 279 132 137 308 285 264 256 274 300 307 299 298 296 297 295 292 291
260 255 246 238 230 213 190 188 186 184 183 181 179 186 201 187 151 144 103 133 146 274 271 234 224 254 270 264 276 293 219 211 200 219 235 210 163 180 200 226 172 174 181 179 189 191 192 211 183 196 14 253 141 187 251 317 283 251 225 247 266 272 264 259 258 254 278 269 245 237 243 297 314 316 298 301 291 300 301 300 298 299 300 299 298 296 295
257 258 251 242 232 213 190 186 182 181 180 179 173 170 215 172 150 142 128 98 195 223 270 341 284 277 296 312 309 322 327 325 308 328 274 139 184 230 332 58 156 179 158 172 157 148 190 185 188 185 210 203 185 219 226 266 267 120 160 187 279 177 215 292 292 288 267 267 275 280 290 294 300 300 295 294 298 296 295 295 296 298 298 302 296 297 301
253 255 253 244 233 212 190 184 181 180 180 181 175 185 193 148 141 149 132 180 338 337 280 285 286 263 251 263 269 311 316 334 342 321 309 202 190 227 220 200 183 136 159 222 209 177 161 168 205 179 198 250 218 253 262 251 263 259 250 209 243 274 272 272 272 267 266 268 265 274 278 283 292 295 297 297 297 300 299 295 293 292 294 294 294 298 295
249 253 255 253 241 211 191 184 182 178 180 184 182 179 177 146 143 125 110 125 202 248 274 219 267 250 231 230 239 225 275 301 306 319 335 341 236 213 231 286 51 155 203 122 354 169 144 144 167 340 216 218 149 219 225 241 248 306 287 261 235 257 252 257 263 277 295 283 291 276 291 302 302 300 298 294 292 298 306 306 303 297 296 296 291 286 285
244 249 249 249 246 226 202 187 181 176 178 183 181 151 94 128 158 157 160 169 188 179 229 211 217 184 60 18 343 247 234 274 333 322 313 305 312 279 255 158 188 261 169 151 159 120 134 158 167 171 196 237 186 243 254 254 248 183 256 280 288 252 66 282 271 276 267 276 288 291 296 297 300 298 296 299 306 302 299 296 295 294 293 290 288 288 288
239 243 247 247 245 227 204 194 185 176 176 182 175 172 178 173 148 140 154 69 80 129 212 242 217 79 66 139 224 225 93 205 242 258 235 259 302 346 90 103 95 54 125 159 175 168 171 179 189 216 200 235 199 229 235 301 304 300 270 276 304 310 306 279 302 289 284 284 287 299 307 297 283 284 297 301 303 301 300 301 300 296 292 291 289 286 285
236 238 242 244 244 231 205 193 183 175 175 180 180 174 161 148 157 169 174 160 122 313 226 238 178 115 182 201 201 87 190 187 198 202 216 215 203 238 196 162 148 158 157 163 172 194 200 201 211 217 209 191 45 267 283 263 259 265 263 272 281 278 271 292 298 290 290 293 310 322 316 313 313 302 300 303 301 301 299 299 296 294 292 291 291 292 291
234 234 237 242 243 240 215 190 177 173 174 175 170 161 142 154 172 178 167 179 182 177 214 203 187 135 93 279 243 189 179 176 178 189 193 189 183 189 202 189 183 183 180 167 168 189 197 200 205 194 225 215 211 236 223 244 255 256 252 253 259 266 287 294 286 289 292 302 305 308 301 293 292 298 304 307 307 302 299 297 297 296 297 298 295 296 295
231 229 235 241 244 241 219 188 171 167 167 162 145 143 145 165 177 182 175 169 101 124 97 84 44 152 188 218 139 186 180 171 176 185 184 171 176 189 203 202 203 205 201 215 234 205 203 218 192 184 187 136 188 247 225 234 237 253 267 306 292 280 273 279 284 288 286 291 299 306 301 294 299 301 302 303 303 304 303 301 300 300 300 300 296 295 292
228 227 231 239 242 242 216 184 169 166 155 142 135 122 158 213 197 191 172 153 152 132 139 165 164 235 57 35 181 175 165 184 181 187 188 180 187 191 202 196 209 211 223 229 225 220 216 209 204 211 180 142 224 287 246 249 261 265 287 295 300 300 299 297 296 297 298 304 301 299 297 296 296 297 302 304 306 304 303 304 305 304 302 297 293 290 276
226 224 229 234 238 239 213 184 166 156 147 151 138 153 177 207 193 175 156 152 154 118 130 70 147 59 26 267 176 187 175 175 186 192 198 198 198 195 199 186 212 205 205 214 225 240 225 210 191 189 175 204 227 240 250 265 266 270 290 306 308 307 307 305 305 301 298 302 304 305 305 305 305 305 303 303 304 305 303 301 301 297 292 292 293 297 299
231 225 226 230 234 237 207 179 165 159 156 160 175 178 184 280 148 157 160 152 130 100 138 125 147 133 194 173 167 195 172 173 164 170 181 186 191 180 159 199 205 205 224 224 224 217 232 239 230 193 203 173 189 255 249 254 257 267 299 307 311 314 316 313 310 306 303 303 308 307 305 303 302 303 305 309 308 307 306 304 304 301 299 298 304 306 297
226 228 227 230 232 231 199 172 162 155 165 125 77 94 148 136 137 145 141 134 104 119 133 108 162 163 147 206 111 131 153 145 176 181 190 195 189 164 174 168 174 198 237 248 209 227 211 190 222 221 217 154 200 239 249 250 262 278 292 303 310 312 307 311 308 307 307 313 325 314 307 308 311 311 308 306 306 312 316 315 317 316 315 316 313 314 313
217 221 225 229 230 224 187 167 156 134 122 122 149 143 135 144 142 141 132 121 94 119 98 151 173 164 158 152 127 189 161 171 180 181 175 184 165 172 176 152 191 209 211 214 221 207 192 211 205 216 151 205 225 255 254 257 260 279 298 308 311 313 318 317 314 318 320 320 316 304 287 288 299 303 309 315 319 323 323 324 322 322 319 315 318 320 324
209 213 218 226 227 205 169 158 138 151 159 154 130 131 144 147 145 139 139 141 130 155 149 197 172 147 158 163 180 173 170 183 184 188 182 154 162 182 161 172 180 222 207 204 239 236 218 215 207 210 221 178 194 228 242 257 280 296 304 308 314 317 318 317 320 319 314 312 316 315 315 319 320 321 325 325 327 330 333 331 334 333 331 332 329 324 324
204 206 212 216 225 185 163 148 148 140 150 161 153 148 145 142 137 130 116 36 48 150 163 177 169 187 170 169 177 157 154 193 173 82 126 134 157 197 191 185 189 215 153 195 227 203 218 189 184 221 194 194 218 225 251 288 297 301 308 312 316 320 317 318 319 326 319 322 326 330 336 335 333 331 333 333 333 337 338 335 338 340 338 335 335 331 325
197 199 207 215 178 140 154 147 131 159 152 142 139 143 136 122 93 85 41 65 16 352 163 164 176 190 186 168 116 139 164 174 175 147 161 170 174 158 183 202 208 164 176 210 222 214 203 159 222 232 212 223 235 235 267 292 305 311 310 311 313 315 320 323 333 336 332 333 339 350 349 347 346 345 343 343 342 342 343 344 343 342 341 341 341 340 336
194 193 183 168 137 144 105 191 160 138 125 129 131 122 120 125 137 130 142 151 210 151 318 182 189 167 123 156 165 175 154 172 164 157 170 179 149 172 185 213 196 178 208 211 202 194 184 197 223 230 236 234 247 268 280 285 299 308 311 316 319 321 325 332 344 342 344 342 348 351 353 354 352 351 350 347 349 349 347 344 344 344 343 346 347 346 349
180 159 139 158 158 182 173 150 150 133 123 123 105 103 140 159 136 149 167 155 156 180 185 187 189 172 161 171 148 140 202 162 159 175 173 189 173 168 184 187 185 203 229 199 179 164 195 205 213 224 237 222 228 228 256 304 307 316 321 322 323 328 340 347 344 349 356 356 347 360 5 359 357 354 353 350 348 348 350 349 351 352 352 352 350 349 358
122 151 148 152 169 113 95 134 135 119 126 113 206 133 132 164 162 165 141 155 186 187 161 196 190 172 177 175 159 164 209 172 170 181 174 164 247 185 178 190 169 182 209 214 175 177 216 198 195 203 230 204 183 188 307 316 317 336 331 331 335 345 358 351 353 12 12 8 7 8 7 7 7 2 356 353 354 357 356 356 356 357 359 359 358 357 358
127 100 137 133 123 127 130 124 99 70 109 121 112 133 128 148 178 138 156 184 184 185 186 180 139 151 152 61 167 159 147 293 339 324 173 171 172 209 168 180 175 195 223 205 157 172 208 217 202 206 187 141 167 326 324 314 338 337 336 340 344 360 3 9 21 20 13 7 9 6 3 3 8 8 4 359 359 359 357 356 357 358 360 2 3 3 359
136 106 106 108 101 91 96 68 74 110 72 38 141 141 154 126 130 172 191 184 190 162 164 169 172 171 167 160 141 106 109 324 259 213 186 174 185 194 181 144 158 214 204 158 146 190 198 204 199 204 195 155 158 321 324 340 345 336 344 349 360 8 13 16 22 26 20 12 7 6 4 2 8 14 12 5 3 2 357 358 359 -0 0 1 6 8 8
104 106 106 99 95 98 147 118 206 147 126 141 138 133 155 171 186 168 167 200 167 173 155 128 122 89 69 110 77 17 107 170 181 177 206 166 138 197 181 177 179 214 200 137 178 186 198 203 193 185 138 148 150 344 353 351 342 335 353 358 8 23 14 1 10 14 16 17 8 7 7 8 13 17 15 15 8 5 3 2 1 1 1 1 6 9 12
112 106 99 116 115 217 188 123 152 125 141 179 176 177 167 168 174 183 186 179 172 167 157 155 153 154 148 187 139 128 141 169 262 195 165 164 165 167 173 193 201 133 116 181 195 200 205 197 199 156 138 140 166 27 22 337 340 342 356 6 29 46 38 354 356 0 14 16 24 17 14 17 14 20 20 20 15 7 2 2 1 358 1 5 8 5 7
121 115 116 124 101 160 140 107 161 224 181 181 190 189 181 185 174 183 184 152 166 158 140 126 139 144 137 141 135 142 189 154 167 196 166 173 178 187 189 202 168 170 195 190 195 202 196 210 195 182 175 168 115 75 89 318 333 338 354 346 17 31 34 13 1 351 7 16 12 7 12 10 13 17 20 17 18 12 4 359 357 2 4 6 9 9 6
129 136 149 129 121 251 215 133 148 181 194 173 188 189 179 179 170 156 117 131 125 131 144 142 143 134 135 164 177 148 158 159 162 188 160 181 176 187 190 135 169 190 193 209 202 201 200 187 169 163 116 164 234 109 45 289 307 311 327 352 11 13 35 20 360 350 0 2 5 11 12 8 8 14 17 16 14 10 9 1 1 0 354 359 9 10 8
102 90 80 72 87 116 158 145 166 174 156 165 164 155 143 127 107 99 95 102 126 127 120 137 140 138 144 156 138 134 169 170 164 165 178 177 187 144 148 186 196 192 195 202 200 197 181 162 151 126 131 190 170 166 217 228 289 314 326 339 337 350 33 22 2 1 357 2 16 20 16 10 5 9 13 14 14 13 6 2 0 1 5 6 9 7 4
108 186 160 100 126 127 129 106 113 110 112 115 103 93 100 111 110 108 95 110 125 137 142 143 141 145 149 165 207 159 154 167 153 168 200 170 138 164 181 199 213 207 215 211 194 183 165 150 148 144 135 127 222 225 220 245 293 297 309 315 339 2 22 16 0 16 2 3 15 18 14 9 6 8 12 12 12 13 8 6 4 4 3 7 13 15 13
82 85 89 97 97 112 118 145 130 106 107 106 110 106 115 128 131 128 137 139 149 154 153 151 147 150 151 161 160 148 169 175 169 165 175 197 190 190 182 198 188 207 214 225 183 156 149 141 124 116 155 186 177 209 228 257 300 299 294 317 344 354 350 289 322 341 342 349 358 3 9 5 5 10 13 14 15 16 14 13 11 12 7 6 10 14 16
74 72 51 102 107 94 127 131 105 114 120 121 126 130 138 142 140 138 150 155 157 149 147 140 150 151 141 155 153 170 169 175 185 162 183 200 195 200 202 214 206 215 170 189 165 147 149 151 134 140 147 160 187 221 243 231 230 266 293 296 304 328 352 296 301 318 328 337 346 346 347 353 7 11 13 11 15 12 20 20 14 12 10 9 9 15 19
51 80 53 319 102 131 147 150 147 141 150 158 160 156 160 161 151 151 171 158 155 154 158 156 152 135 143 157 154 163 180 166 179 190 196 199 191 198 208 212 180 190 145 148 145 144 141 139 141 161 145 168 161 235 256 277 292 307 309 288 302 319 338 334 281 306 315 324 326 331 348 1 5 6 14 9 16 15 22 26 20 15 12 13 14 15 20
81 83 77 57 73 95 98 98 104 124 136 143 149 155 165 155 147 146 165 158 159 167 164 159 154 152 158 168 179 151 127 165 202 187 201 206 185 200 208 216 157 136 131 150 151 157 142 129 116 113 161 131 261 266 267 281 282 300 324 329 300 317 342 358 297 296 316 317 330 348 353 5 358 359 11 16 27 24 23 23 18 17 17 16 17 17 21